Location: Clanezzo
(45.7500°N, 9.6000°E)
Time: 00:28:21
(UTC+00:00)

USA 308 - Pass Details

Date: 01 October 2021
Orbit: 566 x 573 km, 54.0° (Epoch: 23 September)

Event Time Altitude Azimuth Distance (km) Brightness Sun altitude
Rises 19:30:13 0° 297° (WNW) 2,772 7.7 -26.2°
Reaches altitude 10° 19:32:42 10° 285° (WNW) 1,872 6.5 -26.6°
Enters shadow 19:36:08 27° 232° (SW) 1,106 4.5 -27.1°
